Location: Newark
(7.0858°N, 171.3717°E)
Time: 11:20:31
(UTC+00:00)

A-11 Canister half - Pass Details

Date: 06 December 2020
Orbit: 1517 x 1683 km, 47.2° (Epoch: 19 January)

Event Time Altitude Azimuth Distance (km) Brightness Sun altitude
Rises 17:19:53 0° 185° (S) 4,654 11.7 -17.9°
Reaches altitude 10° 17:24:30 10° 165° (SSE) 3,678 11.5 -16.8°
Maximum altitude 17:29:49 17° 129° (SE) 3,203 11.7 -15.6°
Drops below altitude 10° 17:35:10 10° 94° (E) 3,720 12.2 -14.4°
Sets 17:39:48 0° 74° (ENE) 4,731 12.5 -13.3°
